TimeEST,TemperatureF,Dew PointF,Humidity,Sea Level PressureIn,VisibilityMPH,Wind Direction,Wind SpeedMPH,Gust SpeedMPH,PrecipitationIn,Events,Conditions,WindDirDegrees,DateUTC
12:15 AM,51.8,44.6,76,30.44,10.0,SSE,13.8,18.4,N/A,,Mostly Cloudy,160,2012-11-12 05:15:00
12:35 AM,51.8,44.6,76,30.44,10.0,South,11.5,20.7,N/A,,Overcast,170,2012-11-12 05:35:00
1:15 AM,51.8,46.4,82,30.42,10.0,SSE,12.7,19.6,N/A,,Overcast,160,2012-11-12 06:15:00
1:35 AM,50.0,46.4,87,30.42,10.0,South,10.4,20.7,N/A,,Overcast,170,2012-11-12 06:35:00
1:55 AM,50.0,46.4,87,30.43,10.0,SSE,10.4,20.7,N/A,,Overcast,160,2012-11-12 06:55:00
2:15 AM,50.0,48.2,94,30.42,10.0,SSE,9.2,-,N/A,,Overcast,160,2012-11-12 07:15:00
2:35 AM,50.0,48.2,94,30.42,7.0,South,12.7,18.4,N/A,,Overcast,170,2012-11-12 07:35:00
2:55 AM,50.0,48.2,94,30.42,5.0,South,11.5,18.4,N/A,,Overcast,170,2012-11-12 07:55:00
3:15 AM,50.0,50.0,100,30.42,2.5,South,9.2,-,N/A,,Overcast,180,2012-11-12 08:15:00
3:35 AM,50.0,50.0,100,30.41,0.8,South,12.7,21.9,N/A,,Overcast,170,2012-11-12 08:35:00
3:55 AM,50.0,50.0,100,30.41,0.2,South,8.1,18.4,N/A,Fog,Fog,170,2012-11-12 08:55:00
4:35 AM,50.0,50.0,100,30.40,0.2,SSE,12.7,18.4,N/A,Fog,Fog,160,2012-11-12 09:35:00
4:55 AM,50.0,50.0,100,30.40,0.2,South,11.5,19.6,N/A,Fog,Fog,170,2012-11-12 09:55:00
5:15 AM,50.0,50.0,100,30.40,0.2,South,12.7,18.4,N/A,Fog,Fog,170,2012-11-12 10:15:00
5:35 AM,50.0,50.0,100,30.39,0.2,SSE,9.2,19.6,N/A,Fog,Fog,160,2012-11-12 10:35:00
5:55 AM,48.2,48.2,100,30.39,0.2,SSE,9.2,19.6,N/A,,Light Drizzle,160,2012-11-12 10:55:00
6:15 AM,50.0,50.0,100,30.39,0.2,South,12.7,25.3,N/A,,Drizzle,170,2012-11-12 11:15:00
6:35 AM,50.0,50.0,100,30.38,0.2,South,13.8,19.6,N/A,,Drizzle,180,2012-11-12 11:35:00
6:55 AM,50.0,50.0,100,30.39,0.2,SSE,10.4,17.3,N/A,,Heavy Drizzle,160,2012-11-12 11:55:00
7:15 AM,50.0,50.0,100,30.39,0.2,South,13.8,20.7,N/A,Rain,Heavy Rain,180,2012-11-12 12:15:00
7:35 AM,50.0,50.0,100,30.39,0.2,South,13.8,20.7,N/A,Rain,Heavy Rain,170,2012-11-12 12:35:00
7:55 AM,50.0,50.0,100,30.39,0.2,South,16.1,23.0,N/A,Rain,Rain,170,2012-11-12 12:55:00
8:15 AM,50.0,50.0,100,30.39,0.2,South,12.7,17.3,N/A,Rain,Heavy Rain,180,2012-11-12 13:15:00
8:35 AM,50.0,50.0,100,30.39,0.2,SSE,13.8,18.4,N/A,,Heavy Drizzle,160,2012-11-12 13:35:00
8:55 AM,50.0,50.0,100,30.38,0.2,South,11.5,21.9,N/A,,Heavy Drizzle,170,2012-11-12 13:55:00
9:15 AM,50.0,50.0,100,30.38,0.2,South,13.8,24.2,N/A,Rain,Heavy Rain,170,2012-11-12 14:15:00
9:55 AM,51.8,51.8,100,30.38,0.2,South,15.0,20.7,N/A,,Heavy Drizzle,180,2012-11-12 14:55:00
10:15 AM,51.8,51.8,100,30.39,0.2,South,8.1,21.9,N/A,,Heavy Drizzle,180,2012-11-12 15:15:00
10:35 AM,51.8,51.8,100,30.39,0.2,South,12.7,20.7,N/A,,Heavy Drizzle,180,2012-11-12 15:35:00
10:55 AM,51.8,51.8,100,30.39,0.2,South,12.7,21.9,N/A,,Heavy Drizzle,170,2012-11-12 15:55:00
11:15 AM,51.8,51.8,100,30.38,0.2,SSE,10.4,23.0,N/A,Rain,Rain,160,2012-11-12 16:15:00
11:35 AM,51.8,51.8,100,30.37,0.2,South,10.4,17.3,N/A,Rain,Light Rain,180,2012-11-12 16:35:00
11:55 AM,51.8,51.8,100,30.36,0.2,South,10.4,18.4,N/A,,Heavy Drizzle,170,2012-11-12 16:55:00
12:15 PM,51.8,51.8,100,30.34,0.2,South,13.8,18.4,N/A,,Heavy Drizzle,170,2012-11-12 17:15:00
12:35 PM,51.8,51.8,100,30.33,0.2,South,10.4,-,N/A,Rain,Heavy Rain,170,2012-11-12 17:35:00
12:55 PM,51.8,51.8,100,30.31,0.2,SSE,10.4,-,N/A,,Heavy Drizzle,160,2012-11-12 17:55:00
1:15 PM,51.8,51.8,100,30.28,0.2,SSE,11.5,18.4,N/A,Rain,Rain,160,2012-11-12 18:15:00
1:35 PM,51.8,51.8,100,30.27,0.2,SSE,13.8,24.2,N/A,Rain,Heavy Rain,160,2012-11-12 18:35:00
1:55 PM,51.8,51.8,100,30.28,0.2,South,13.8,24.2,N/A,Rain,Heavy Rain,180,2012-11-12 18:55:00
2:15 PM,51.8,51.8,100,30.28,0.2,South,16.1,25.3,N/A,Rain,Heavy Rain,180,2012-11-12 19:15:00
2:35 PM,51.8,51.8,100,30.27,0.2,South,13.8,20.7,N/A,Rain,Light Rain,180,2012-11-12 19:35:00
2:55 PM,51.8,51.8,100,30.27,0.2,South,15.0,23.0,N/A,,Drizzle,190,2012-11-12 19:55:00
3:15 PM,51.8,51.8,100,30.26,0.2,South,11.5,21.9,N/A,,Heavy Drizzle,180,2012-11-12 20:15:00
3:35 PM,51.8,51.8,100,30.27,0.2,SSW,10.4,18.4,N/A,,Heavy Drizzle,200,2012-11-12 20:35:00
3:55 PM,51.8,51.8,100,30.26,0.2,South,12.7,20.7,N/A,Rain,Rain,180,2012-11-12 20:55:00
4:15 PM,51.8,51.8,100,30.25,0.2,South,12.7,17.3,N/A,,Heavy Drizzle,170,2012-11-12 21:15:00
4:35 PM,51.8,51.8,100,30.23,0.2,SSE,10.4,19.6,N/A,,Heavy Drizzle,160,2012-11-12 21:35:00
4:55 PM,53.6,53.6,100,30.25,0.2,South,10.4,17.3,N/A,,Drizzle,170,2012-11-12 21:55:00
5:15 PM,53.6,53.6,100,30.25,0.2,South,11.5,17.3,N/A,,Heavy Drizzle,180,2012-11-12 22:15:00
5:35 PM,53.6,53.6,100,30.25,0.2,South,11.5,19.6,N/A,,Heavy Drizzle,180,2012-11-12 22:35:00
5:55 PM,53.6,53.6,100,30.25,0.2,South,13.8,18.4,N/A,,Drizzle,170,2012-11-12 22:55:00
6:15 PM,53.6,53.6,100,30.24,0.2,South,15.0,23.0,N/A,Rain,Light Rain,180,2012-11-12 23:15:00
6:35 PM,53.6,53.6,100,30.25,0.2,South,9.2,17.3,N/A,Rain,Light Rain,190,2012-11-12 23:35:00
6:55 PM,53.6,53.6,100,30.25,0.2,SSW,11.5,16.1,0.02,Rain,Light Rain,200,2012-11-12 23:55:00
7:15 PM,53.6,53.6,100,30.25,2.5,South,10.4,17.3,0.05,Rain,Light Rain,190,2012-11-13 00:15:00
7:35 PM,53.6,53.6,100,30.24,0.2,South,6.9,-,0.06,Rain,Rain,190,2012-11-13 00:35:00
7:55 PM,53.6,53.6,100,30.23,0.2,South,11.5,-,0.01,Rain,Rain,190,2012-11-13 00:55:00
8:15 PM,53.6,53.6,100,30.23,0.2,South,6.9,-,0.09,Rain,Heavy Rain,180,2012-11-13 01:15:00
8:35 PM,53.6,53.6,100,30.22,0.2,South,9.2,-,0.17,Rain,Rain,190,2012-11-13 01:35:00
8:55 PM,53.6,53.6,100,30.22,0.8,SW,6.9,-,0.06,Rain,Heavy Rain,220,2012-11-13 01:55:00
9:15 PM,48.2,48.2,100,30.23,0.2,NW,13.8,18.4,0.27,Rain,Rain,310,2012-11-13 02:15:00
9:35 PM,44.6,44.6,100,30.22,0.2,NW,15.0,23.0,0.32,Rain,Light Rain,310,2012-11-13 02:35:00
9:55 PM,44.6,44.6,100,30.22,0.2,NW,17.3,24.2,0.06,Rain,Rain,320,2012-11-13 02:55:00
10:15 PM,42.8,42.8,100,30.24,0.2,NW,18.4,24.2,0.09,Rain,Light Rain,310,2012-11-13 03:15:00
10:35 PM,42.8,42.8,100,30.25,0.2,WNW,21.9,28.8,0.17,,Overcast,300,2012-11-13 03:35:00
10:55 PM,39.2,39.2,100,30.25,1.0,NW,21.9,28.8,N/A,Rain,Light Rain,310,2012-11-13 03:55:00
11:15 PM,37.4,37.4,100,30.25,0.2,NW,19.6,26.5,N/A,Rain,Light Rain,310,2012-11-13 04:15:00
11:35 PM,37.4,37.4,100,30.25,0.2,WNW,25.3,31.1,0.01,Snow,Light Snow,290,2012-11-13 04:35:00
11:55 PM,37.4,37.4,100,30.26,0.2,WNW,19.6,27.6,N/A,Snow,Light Snow,290,2012-11-13 04:55:00